KJ7AZ-3 Weather Reports


time (UTC)temp
F
wind
direction
speed
knots
gust
knots
rain 1hr
in
rain 24hr
in
rain mn
in
humidity
%
barometer
mb
20260905054917 64 174 0.0 0.0 0.00 0.00 0.00
20260905053417 65 174 0.0 0.0 0.00 0.00 0.00
20260905051917 63 174 0.0 0.0 0.00 0.00 0.00
20260905050417 64 174 0.0 0.0 0.00 0.00 0.00
20260905044917 65 174 0.0 0.0 0.00 0.00 0.00
20260905043417 65 174 0.0 0.0 0.00 0.00 0.00
20260905041917 65 174 0.0 0.0 0.00 0.00 0.00
20260905040416 65 174 0.0 0.0 0.00 0.00 0.00
20260905034916 65 174 0.0 0.0 0.00 0.00 0.00
20260905033417 67 174 0.0 0.0 0.00 0.00 0.00
20260905031917 68 174 0.0 0.0 0.00 0.00 0.00
20260905030417 69 174 0.0 0.0 0.00 0.00 0.00
20260905024917 69 174 0.0 0.0 0.00 0.00 0.00
20260905023417 71 174 0.0 0.0 0.00 0.00 0.00
20260905021917 71 174 0.0 0.0 0.00 0.00 0.00
20260905020417 71 150 0.0 0.0 0.00 0.00 0.00
20260905014916 71 132 1.7 1.7 0.00 0.00 0.00
20260905013416 73 179 1.7 0.0 0.00 0.00 0.00
20260905011916 74 134 2.6 0.9 0.00 0.00 0.00
20260905010416 75 158 1.7 5.2 0.00 0.00 0.00
20260905004916 75 149 1.7 1.7 0.00 0.00 0.00
20260905001915 76 86 2.6 0.9 0.00 0.00 0.00
20260905000417 77 181 3.5 1.7 0.00 0.00 0.00
20260904234915 78 165 5.2 2.6 0.00 0.00 0.00
20260904233414 81 149 0.9 0.0 0.00 0.00 0.00
20260904231914 84 91 0.9 0.0 0.00 0.00 0.00
20260904230413 84 110 1.7 0.9 0.00 0.00 0.00
20260904224914 83 82 4.3 3.5 0.00 0.00 0.00
20260904220412 85 97 7.0 3.5 0.00 0.00 0.00
20260904214911 88 58 7.0 4.3 0.00 0.00 0.00
20260904211909 87 87 9.6 6.1 0.00 0.00 0.00
20260904210409 92 8 7.0 10.4 0.00 0.00 0.00
20260904204909 89 322 4.3 4.3 0.00 0.00 0.00
20260904203408 89 263 0.9 0.0 0.00 0.00 0.00
20260904201907 90 6 0.0 2.6 0.00 0.00 0.00
20260904200407 89 301 0.0 0.0 0.00 0.00 0.00
20260904194906 89 41 0.0 3.5 0.00 0.00 0.00
20260904193406 89 307 0.9 4.3 0.00 0.00 0.00
20260904191906 87 354 2.6 0.0 0.00 0.00 0.00
20260904190406 83 330 1.7 0.9 0.00 0.00 0.00
20260904184905 87 194 0.9 0.0 0.00 0.00 0.00
20260904181905 85 274 1.7 0.0 0.00 0.00 0.00
20260904180405 84 293 2.6 1.7 0.00 0.00 0.00
20260904174905 83 333 1.7 2.6 0.00 0.00 0.00
20260904173405 83 221 3.5 0.9 0.00 0.00 0.00
20260904171905 82 311 4.3 8.7 0.00 0.00 0.00
20260904170405 81 311 2.6 4.3 0.00 0.00 0.00
20260904164905 81 283 2.6 4.3 0.00 0.00 0.00
20260904163405 80 345 3.5 0.9 0.00 0.00 0.00
20260904161904 77 253 2.6 0.9 0.00 0.00 0.00
20260904153405 73 27 1.7 1.7 0.00 0.00 0.00
20260904144905 71 359 4.3 0.9 0.00 0.00 0.00
20260904143404 71 304 2.6 4.3 0.00 0.00 0.00
20260904140404 71 13 2.6 2.6 0.00 0.00 0.00
20260904133405 67 27 0.0 0.0 0.00 0.00 0.00
20260904131905 66 325 0.0 0.0 0.00 0.00 0.00
20260904124905 65 333 0.9 0.0 0.00 0.00 0.00
20260904123405 66 350 1.7 0.9 0.00 0.00 0.00
20260904120405 66 319 0.0 0.9 0.00 0.00 0.00
20260904114906 67 307 1.7 2.6 0.00 0.00 0.00
20260904113406 67 4 1.7 2.6 0.00 0.00 0.00
20260904111906 67 322 1.7 5.2 0.00 0.00 0.00
20260904110406 68 359 0.9 2.6 0.00 0.00 0.00
20260904104906 69 318 3.5 0.9 0.00 0.00 0.00
20260904103406 69 350 2.6 2.6 0.00 0.00 0.00
20260904101906 68 315 3.5 2.6 0.00 0.00 0.00
20260904100407 69 1 0.9 0.0 0.00 0.00 0.00
20260904094907 68 308 1.7 0.0 0.00 0.00 0.00
20260904093407 68 305 0.0 0.0 0.00 0.00 0.00
20260904091907 68 305 0.9 0.9 0.00 0.00 0.00
20260904090408 67 215 0.0 0.0 0.00 0.00 0.00
20260904084908 66 215 0.0 0.0 0.00 0.00 0.00
20260904083408 66 215 0.0 0.0 0.00 0.00 0.00
20260904081908 67 215 0.0 0.0 0.00 0.00 0.00
20260904080411 68 215 0.0 0.0 0.00 0.00 0.00
20260904074909 69 215 0.0 0.0 0.00 0.00 0.00
20260904073409 69 215 0.0 0.0 0.00 0.00 0.00
20260904071909 69 215 0.0 0.0 0.00 0.00 0.00
20260904070409 69 215 0.0 0.0 0.00 0.00 0.00
20260904064909 70 215 0.0 0.0 0.00 0.00 0.00
20260904063409 70 215 0.0 0.0 0.00 0.00 0.00
20260904061909 71 215 0.0 0.0 0.00 0.00 0.00
20260904060409 73 215 0.0 0.0 0.00 0.00 0.00